Date_Time,Julian_Date,Latitude,Longitude,Instrument_Depth,Water_Temperature
(yyyy-mm-dd hh:mn:ss UTC),(JD),(+ deg. North),(+ deg. East),(m),(deg. C)
1981-07-23 18:30:00 UTC,2444809.270833,29.4519,-93.4333,0107,28.9000
1981-07-23 19:00:00 UTC,2444809.291667,29.4519,-93.4333,0107,28.9000
1981-07-23 19:30:00 UTC,2444809.312500,29.4519,-93.4333,0107,28.9000
1981-07-23 20:00:00 UTC,2444809.333333,29.4519,-93.4333,0107,28.9000
1981-07-23 20:30:00 UTC,2444809.354167,29.4519,-93.4333,0107,28.9000
1981-07-23 21:00:00 UTC,2444809.375000,29.4519,-93.4333,0107,28.9000
1981-07-23 21:30:00 UTC,2444809.395833,29.4519,-93.4333,0107,28.9000
1981-07-23 22:00:00 UTC,2444809.416667,29.4519,-93.4333,0107,28.9000
1981-07-23 22:30:00 UTC,2444809.437500,29.4519,-93.4333,0107,28.9000
1981-07-23 23:00:00 UTC,2444809.458333,29.4519,-93.4333,0107,28.9000
1981-07-23 23:30:00 UTC,2444809.479167,29.4519,-93.4333,0107,29.0000
1981-07-24 00:00:00 UTC,2444809.500000,29.4519,-93.4333,0107,29.0000
1981-07-24 00:30:00 UTC,2444809.520833,29.4519,-93.4333,0107,29.0000
1981-07-24 01:00:00 UTC,2444809.541667,29.4519,-93.4333,0107,29.1000
1981-07-24 01:30:00 UTC,2444809.562500,29.4519,-93.4333,0107,29.1000
1981-07-24 02:00:00 UTC,2444809.583333,29.4519,-93.4333,0107,29.2000
1981-07-24 02:30:00 UTC,2444809.604167,29.4519,-93.4333,0107,29.2000
1981-07-24 03:00:00 UTC,2444809.625000,29.4519,-93.4333,0107,29.1000
1981-07-24 03:30:00 UTC,2444809.645833,29.4519,-93.4333,0107,29.0000
1981-07-24 04:00:00 UTC,2444809.666667,29.4519,-93.4333,0107,29.0000
1981-07-24 04:30:00 UTC,2444809.687500,29.4519,-93.4333,0107,28.9000
1981-07-24 05:00:00 UTC,2444809.708333,29.4519,-93.4333,0107,28.9000
1981-07-24 05:30:00 UTC,2444809.729167,29.4519,-93.4333,0107,28.8000
1981-07-24 06:00:00 UTC,2444809.750000,29.4519,-93.4333,0107,28.7000
1981-07-24 06:30:00 UTC,2444809.770833,29.4519,-93.4333,0107,28.7000
1981-07-24 07:00:00 UTC,2444809.791667,29.4519,-93.4333,0107,28.7000
1981-07-24 07:30:00 UTC,2444809.812500,29.4519,-93.4333,0107,28.7000
1981-07-24 08:00:00 UTC,2444809.833333,29.4519,-93.4333,0107,28.7000
1981-07-24 08:30:00 UTC,2444809.854167,29.4519,-93.4333,0107,28.7000
1981-07-24 09:00:00 UTC,2444809.875000,29.4519,-93.4333,0107,28.7000
1981-07-24 09:30:00 UTC,2444809.895833,29.4519,-93.4333,0107,28.7000
1981-07-24 10:00:00 UTC,2444809.916667,29.4519,-93.4333,0107,28.8000
1981-07-24 10:30:00 UTC,2444809.937500,29.4519,-93.4333,0107,28.8000
1981-07-24 11:00:00 UTC,2444809.958333,29.4519,-93.4333,0107,28.9000
1981-07-24 11:30:00 UTC,2444809.979167,29.4519,-93.4333,0107,28.9000
1981-07-24 12:00:00 UTC,2444810.000000,29.4519,-93.4333,0107,28.9000
1981-07-24 12:30:00 UTC,2444810.020833,29.4519,-93.4333,0107,28.9000
1981-07-24 13:00:00 UTC,2444810.041667,29.4519,-93.4333,0107,29.0000
1981-07-24 13:30:00 UTC,2444810.062500,29.4519,-93.4333,0107,29.0000
1981-07-24 14:00:00 UTC,2444810.083333,29.4519,-93.4333,0107,28.9000
1981-07-24 14:30:00 UTC,2444810.104167,29.4519,-93.4333,0107,28.9000
1981-07-24 15:00:00 UTC,2444810.125000,29.4519,-93.4333,0107,28.9000
1981-07-24 15:30:00 UTC,2444810.145833,29.4519,-93.4333,0107,28.9000
1981-07-24 16:00:00 UTC,2444810.166667,29.4519,-93.4333,0107,28.9000
1981-07-24 16:30:00 UTC,2444810.187500,29.4519,-93.4333,0107,28.8000
1981-07-24 17:00:00 UTC,2444810.208333,29.4519,-93.4333,0107,28.9000
1981-07-24 17:30:00 UTC,2444810.229167,29.4519,-93.4333,0107,29.1000
1981-07-24 18:00:00 UTC,2444810.250000,29.4519,-93.4333,0107,29.2000
1981-07-24 18:30:00 UTC,2444810.270833,29.4519,-93.4333,0107,29.3000
1981-07-24 19:00:00 UTC,2444810.291667,29.4519,-93.4333,0107,29.3000
1981-07-24 19:30:00 UTC,2444810.312500,29.4519,-93.4333,0107,29.3000
1981-07-24 20:00:00 UTC,2444810.333333,29.4519,-93.4333,0107,29.3000
1981-07-24 20:30:00 UTC,2444810.354167,29.4519,-93.4333,0107,29.4000
1981-07-24 21:00:00 UTC,2444810.375000,29.4519,-93.4333,0107,29.4000
1981-07-24 21:30:00 UTC,2444810.395833,29.4519,-93.4333,0107,29.5000
1981-07-24 22:00:00 UTC,2444810.416667,29.4519,-93.4333,0107,29.5000
1981-07-24 22:30:00 UTC,2444810.437500,29.4519,-93.4333,0107,29.6000
1981-07-24 23:00:00 UTC,2444810.458333,29.4519,-93.4333,0107,29.5000
1981-07-24 23:30:00 UTC,2444810.479167,29.4519,-93.4333,0107,29.4000
1981-07-25 00:00:00 UTC,2444810.500000,29.4519,-93.4333,0107,29.2000
1981-07-25 00:30:00 UTC,2444810.520833,29.4519,-93.4333,0107,29.3000
1981-07-25 01:00:00 UTC,2444810.541667,29.4519,-93.4333,0107,29.4000
1981-07-25 01:30:00 UTC,2444810.562500,29.4519,-93.4333,0107,29.5000
1981-07-25 02:00:00 UTC,2444810.583333,29.4519,-93.4333,0107,29.5000
1981-07-25 02:30:00 UTC,2444810.604167,29.4519,-93.4333,0107,29.4000
1981-07-25 03:00:00 UTC,2444810.625000,29.4519,-93.4333,0107,29.5000
1981-07-25 03:30:00 UTC,2444810.645833,29.4519,-93.4333,0107,29.6000
1981-07-25 04:00:00 UTC,2444810.666667,29.4519,-93.4333,0107,29.6000
1981-07-25 04:30:00 UTC,2444810.687500,29.4519,-93.4333,0107,29.6000
1981-07-25 05:00:00 UTC,2444810.708333,29.4519,-93.4333,0107,29.6000
1981-07-25 05:30:00 UTC,2444810.729167,29.4519,-93.4333,0107,29.6000
1981-07-25 06:00:00 UTC,2444810.750000,29.4519,-93.4333,0107,29.5000
1981-07-25 06:30:00 UTC,2444810.770833,29.4519,-93.4333,0107,29.5000
1981-07-25 07:00:00 UTC,2444810.791667,29.4519,-93.4333,0107,29.5000
1981-07-25 07:30:00 UTC,2444810.812500,29.4519,-93.4333,0107,29.5000
1981-07-25 08:00:00 UTC,2444810.833333,29.4519,-93.4333,0107,29.6000
1981-07-25 08:30:00 UTC,2444810.854167,29.4519,-93.4333,0107,29.6000
1981-07-25 09:00:00 UTC,2444810.875000,29.4519,-93.4333,0107,29.7000
1981-07-25 09:30:00 UTC,2444810.895833,29.4519,-93.4333,0107,29.7000
1981-07-25 10:00:00 UTC,2444810.916667,29.4519,-93.4333,0107,29.7000
1981-07-25 10:30:00 UTC,2444810.937500,29.4519,-93.4333,0107,29.7000
1981-07-25 11:00:00 UTC,2444810.958333,29.4519,-93.4333,0107,29.7000
1981-07-25 11:30:00 UTC,2444810.979167,29.4519,-93.4333,0107,29.6000
1981-07-25 12:00:00 UTC,2444811.000000,29.4519,-93.4333,0107,29.6000
1981-07-25 12:30:00 UTC,2444811.020833,29.4519,-93.4333,0107,29.6000
1981-07-25 13:00:00 UTC,2444811.041667,29.4519,-93.4333,0107,29.5000
1981-07-25 13:30:00 UTC,2444811.062500,29.4519,-93.4333,0107,29.5000
1981-07-25 14:00:00 UTC,2444811.083333,29.4519,-93.4333,0107,29.5000
1981-07-25 14:30:00 UTC,2444811.104167,29.4519,-93.4333,0107,29.6000
1981-07-25 15:00:00 UTC,2444811.125000,29.4519,-93.4333,0107,29.6000
1981-07-25 15:30:00 UTC,2444811.145833,29.4519,-93.4333,0107,29.6000
1981-07-25 16:00:00 UTC,2444811.166667,29.4519,-93.4333,0107,29.6000
1981-07-25 16:30:00 UTC,2444811.187500,29.4519,-93.4333,0107,29.6000
1981-07-25 17:00:00 UTC,2444811.208333,29.4519,-93.4333,0107,29.6000
1981-07-25 17:30:00 UTC,2444811.229167,29.4519,-93.4333,0107,29.6000
1981-07-25 18:00:00 UTC,2444811.250000,29.4519,-93.4333,0107,29.7000
1981-07-25 18:30:00 UTC,2444811.270833,29.4519,-93.4333,0107,29.7000
1981-07-25 19:00:00 UTC,2444811.291667,29.4519,-93.4333,0107,29.8000
1981-07-25 19:30:00 UTC,2444811.312500,29.4519,-93.4333,0107,29.8000
1981-07-25 20:00:00 UTC,2444811.333333,29.4519,-93.4333,0107,29.9000
1981-07-25 20:30:00 UTC,2444811.354167,29.4519,-93.4333,0107,29.9000
1981-07-25 21:00:00 UTC,2444811.375000,29.4519,-93.4333,0107,29.9000
1981-07-25 21:30:00 UTC,2444811.395833,29.4519,-93.4333,0107,30.0000
1981-07-25 22:00:00 UTC,2444811.416667,29.4519,-93.4333,0107,30.0000
1981-07-25 22:30:00 UTC,2444811.437500,29.4519,-93.4333,0107,30.0000
1981-07-25 23:00:00 UTC,2444811.458333,29.4519,-93.4333,0107,30.0000
1981-07-25 23:30:00 UTC,2444811.479167,29.4519,-93.4333,0107,30.0000
1981-07-26 00:00:00 UTC,2444811.500000,29.4519,-93.4333,0107,30.0000
1981-07-26 00:30:00 UTC,2444811.520833,29.4519,-93.4333,0107,30.0000
1981-07-26 01:00:00 UTC,2444811.541667,29.4519,-93.4333,0107,29.9000
1981-07-26 01:30:00 UTC,2444811.562500,29.4519,-93.4333,0107,29.9000
1981-07-26 02:00:00 UTC,2444811.583333,29.4519,-93.4333,0107,29.9000
1981-07-26 02:30:00 UTC,2444811.604167,29.4519,-93.4333,0107,29.9000
1981-07-26 03:00:00 UTC,2444811.625000,29.4519,-93.4333,0107,29.9000
1981-07-26 03:30:00 UTC,2444811.645833,29.4519,-93.4333,0107,29.9000
1981-07-26 04:00:00 UTC,2444811.666667,29.4519,-93.4333,0107,29.9000
1981-07-26 04:30:00 UTC,2444811.687500,29.4519,-93.4333,0107,30.0000
1981-07-26 05:00:00 UTC,2444811.708333,29.4519,-93.4333,0107,30.0000
1981-07-26 05:30:00 UTC,2444811.729167,29.4519,-93.4333,0107,30.0000
1981-07-26 06:00:00 UTC,2444811.750000,29.4519,-93.4333,0107,30.1000
1981-07-26 06:30:00 UTC,2444811.770833,29.4519,-93.4333,0107,30.1000
1981-07-26 07:00:00 UTC,2444811.791667,29.4519,-93.4333,0107,30.1000
1981-07-26 07:30:00 UTC,2444811.812500,29.4519,-93.4333,0107,30.1000
1981-07-26 08:00:00 UTC,2444811.833333,29.4519,-93.4333,0107,30.2000
1981-07-26 08:30:00 UTC,2444811.854167,29.4519,-93.4333,0107,30.2000
1981-07-26 09:00:00 UTC,2444811.875000,29.4519,-93.4333,0107,30.2000
1981-07-26 09:30:00 UTC,2444811.895833,29.4519,-93.4333,0107,30.1000
1981-07-26 10:00:00 UTC,2444811.916667,29.4519,-93.4333,0107,30.1000
1981-07-26 10:30:00 UTC,2444811.937500,29.4519,-93.4333,0107,30.1000
1981-07-26 11:00:00 UTC,2444811.958333,29.4519,-93.4333,0107,30.1000
1981-07-26 11:30:00 UTC,2444811.979167,29.4519,-93.4333,0107,30.1000
1981-07-26 12:00:00 UTC,2444812.000000,29.4519,-93.4333,0107,30.0000
1981-07-26 12:30:00 UTC,2444812.020833,29.4519,-93.4333,0107,30.0000
1981-07-26 13:00:00 UTC,2444812.041667,29.4519,-93.4333,0107,29.9000
1981-07-26 13:30:00 UTC,2444812.062500,29.4519,-93.4333,0107,29.9000
1981-07-26 14:00:00 UTC,2444812.083333,29.4519,-93.4333,0107,29.9000
1981-07-26 14:30:00 UTC,2444812.104167,29.4519,-93.4333,0107,29.9000
1981-07-26 15:00:00 UTC,2444812.125000,29.4519,-93.4333,0107,29.9000
1981-07-26 15:30:00 UTC,2444812.145833,29.4519,-93.4333,0107,29.9000
1981-07-26 16:00:00 UTC,2444812.166667,29.4519,-93.4333,0107,29.9000
1981-07-26 16:30:00 UTC,2444812.187500,29.4519,-93.4333,0107,30.0000
1981-07-26 17:00:00 UTC,2444812.208333,29.4519,-93.4333,0107,30.0000
1981-07-26 17:30:00 UTC,2444812.229167,29.4519,-93.4333,0107,30.0000
1981-07-26 18:00:00 UTC,2444812.250000,29.4519,-93.4333,0107,30.0000
1981-07-26 18:30:00 UTC,2444812.270833,29.4519,-93.4333,0107,30.0000
1981-07-26 19:00:00 UTC,2444812.291667,29.4519,-93.4333,0107,30.0000
1981-07-26 19:30:00 UTC,2444812.312500,29.4519,-93.4333,0107,30.0000
1981-07-26 20:00:00 UTC,2444812.333333,29.4519,-93.4333,0107,30.0000
1981-07-26 20:30:00 UTC,2444812.354167,29.4519,-93.4333,0107,30.0000
1981-07-26 21:00:00 UTC,2444812.375000,29.4519,-93.4333,0107,30.0000
1981-07-26 21:30:00 UTC,2444812.395833,29.4519,-93.4333,0107,30.0000
1981-07-26 22:00:00 UTC,2444812.416667,29.4519,-93.4333,0107,30.0000
1981-07-26 22:30:00 UTC,2444812.437500,29.4519,-93.4333,0107,30.0000
1981-07-26 23:00:00 UTC,2444812.458333,29.4519,-93.4333,0107,30.0000
1981-07-26 23:30:00 UTC,2444812.479167,29.4519,-93.4333,0107,30.0000
1981-07-27 00:00:00 UTC,2444812.500000,29.4519,-93.4333,0107,30.0000
1981-07-27 00:30:00 UTC,2444812.520833,29.4519,-93.4333,0107,29.9000
1981-07-27 01:00:00 UTC,2444812.541667,29.4519,-93.4333,0107,29.9000
1981-07-27 01:30:00 UTC,2444812.562500,29.4519,-93.4333,0107,29.9000
1981-07-27 02:00:00 UTC,2444812.583333,29.4519,-93.4333,0107,29.9000
1981-07-27 02:30:00 UTC,2444812.604167,29.4519,-93.4333,0107,29.9000
1981-07-27 03:00:00 UTC,2444812.625000,29.4519,-93.4333,0107,29.9000
1981-07-27 03:30:00 UTC,2444812.645833,29.4519,-93.4333,0107,29.9000
1981-07-27 04:00:00 UTC,2444812.666667,29.4519,-93.4333,0107,29.9000
1981-07-27 04:30:00 UTC,2444812.687500,29.4519,-93.4333,0107,29.9000
1981-07-27 05:00:00 UTC,2444812.708333,29.4519,-93.4333,0107,29.9000
1981-07-27 05:30:00 UTC,2444812.729167,29.4519,-93.4333,0107,29.9000
1981-07-27 06:00:00 UTC,2444812.750000,29.4519,-93.4333,0107,29.9000
1981-07-27 06:30:00 UTC,2444812.770833,29.4519,-93.4333,0107,30.0000
1981-07-27 07:00:00 UTC,2444812.791667,29.4519,-93.4333,0107,30.1000
1981-07-27 07:30:00 UTC,2444812.812500,29.4519,-93.4333,0107,30.2000
1981-07-27 08:00:00 UTC,2444812.833333,29.4519,-93.4333,0107,30.3000
1981-07-27 08:30:00 UTC,2444812.854167,29.4519,-93.4333,0107,30.3000
1981-07-27 09:00:00 UTC,2444812.875000,29.4519,-93.4333,0107,30.3000
1981-07-27 09:30:00 UTC,2444812.895833,29.4519,-93.4333,0107,30.2000
1981-07-27 10:00:00 UTC,2444812.916667,29.4519,-93.4333,0107,30.1000
1981-07-27 10:30:00 UTC,2444812.937500,29.4519,-93.4333,0107,30.1000
1981-07-27 11:00:00 UTC,2444812.958333,29.4519,-93.4333,0107,30.0000
1981-07-27 11:30:00 UTC,2444812.979167,29.4519,-93.4333,0107,30.0000
1981-07-27 12:00:00 UTC,2444813.000000,29.4519,-93.4333,0107,29.9000
1981-07-27 12:30:00 UTC,2444813.020833,29.4519,-93.4333,0107,29.9000
1981-07-27 13:00:00 UTC,2444813.041667,29.4519,-93.4333,0107,29.9000
1981-07-27 13:30:00 UTC,2444813.062500,29.4519,-93.4333,0107,29.9000
1981-07-27 14:00:00 UTC,2444813.083333,29.4519,-93.4333,0107,29.9000
1981-07-27 14:30:00 UTC,2444813.104167,29.4519,-93.4333,0107,29.9000
1981-07-27 15:00:00 UTC,2444813.125000,29.4519,-93.4333,0107,29.8000
1981-07-27 15:30:00 UTC,2444813.145833,29.4519,-93.4333,0107,29.8000
1981-07-27 16:00:00 UTC,2444813.166667,29.4519,-93.4333,0107,29.9000
1981-07-27 16:30:00 UTC,2444813.187500,29.4519,-93.4333,0107,29.9000
1981-07-27 17:00:00 UTC,2444813.208333,29.4519,-93.4333,0107,29.9000
1981-07-27 17:30:00 UTC,2444813.229167,29.4519,-93.4333,0107,29.9000
1981-07-27 18:00:00 UTC,2444813.250000,29.4519,-93.4333,0107,30.0000
1981-07-27 18:30:00 UTC,2444813.270833,29.4519,-93.4333,0107,30.0000
1981-07-27 19:00:00 UTC,2444813.291667,29.4519,-93.4333,0107,30.0000
1981-07-27 19:30:00 UTC,2444813.312500,29.4519,-93.4333,0107,30.0000
1981-07-27 20:00:00 UTC,2444813.333333,29.4519,-93.4333,0107,30.1000
1981-07-27 20:30:00 UTC,2444813.354167,29.4519,-93.4333,0107,30.1000
1981-07-27 21:00:00 UTC,2444813.375000,29.4519,-93.4333,0107,30.0000
1981-07-27 21:30:00 UTC,2444813.395833,29.4519,-93.4333,0107,29.9000
1981-07-27 22:00:00 UTC,2444813.416667,29.4519,-93.4333,0107,29.9000
1981-07-27 22:30:00 UTC,2444813.437500,29.4519,-93.4333,0107,29.9000
1981-07-27 23:00:00 UTC,2444813.458333,29.4519,-93.4333,0107,29.9000
1981-07-27 23:30:00 UTC,2444813.479167,29.4519,-93.4333,0107,29.9000
1981-07-28 00:00:00 UTC,2444813.500000,29.4519,-93.4333,0107,29.9000
1981-07-28 00:30:00 UTC,2444813.520833,29.4519,-93.4333,0107,29.9000
1981-07-28 01:00:00 UTC,2444813.541667,29.4519,-93.4333,0107,29.9000
1981-07-28 01:30:00 UTC,2444813.562500,29.4519,-93.4333,0107,29.9000
1981-07-28 02:00:00 UTC,2444813.583333,29.4519,-93.4333,0107,29.9000
1981-07-28 02:30:00 UTC,2444813.604167,29.4519,-93.4333,0107,29.9000
1981-07-28 03:00:00 UTC,2444813.625000,29.4519,-93.4333,0107,29.9000
1981-07-28 03:30:00 UTC,2444813.645833,29.4519,-93.4333,0107,29.9000
1981-07-28 04:00:00 UTC,2444813.666667,29.4519,-93.4333,0107,29.9000
1981-07-28 04:30:00 UTC,2444813.687500,29.4519,-93.4333,0107,29.9000
1981-07-28 05:00:00 UTC,2444813.708333,29.4519,-93.4333,0107,29.9000
1981-07-28 05:30:00 UTC,2444813.729167,29.4519,-93.4333,0107,29.9000
1981-07-28 06:00:00 UTC,2444813.750000,29.4519,-93.4333,0107,30.0000
1981-07-28 06:30:00 UTC,2444813.770833,29.4519,-93.4333,0107,30.0000
1981-07-28 07:00:00 UTC,2444813.791667,29.4519,-93.4333,0107,30.0000
1981-07-28 07:30:00 UTC,2444813.812500,29.4519,-93.4333,0107,29.9000
1981-07-28 08:00:00 UTC,2444813.833333,29.4519,-93.4333,0107,29.9000
1981-07-28 08:30:00 UTC,2444813.854167,29.4519,-93.4333,0107,29.9000
1981-07-28 09:00:00 UTC,2444813.875000,29.4519,-93.4333,0107,29.9000
1981-07-28 09:30:00 UTC,2444813.895833,29.4519,-93.4333,0107,29.9000
1981-07-28 10:00:00 UTC,2444813.916667,29.4519,-93.4333,0107,29.9000
1981-07-28 10:30:00 UTC,2444813.937500,29.4519,-93.4333,0107,29.9000
1981-07-28 11:00:00 UTC,2444813.958333,29.4519,-93.4333,0107,29.8000
1981-07-28 11:30:00 UTC,2444813.979167,29.4519,-93.4333,0107,29.8000
1981-07-28 12:00:00 UTC,2444814.000000,29.4519,-93.4333,0107,29.8000
1981-07-28 12:30:00 UTC,2444814.020833,29.4519,-93.4333,0107,29.8000
1981-07-28 13:00:00 UTC,2444814.041667,29.4519,-93.4333,0107,29.8000
1981-07-28 13:30:00 UTC,2444814.062500,29.4519,-93.4333,0107,29.8000
1981-07-28 14:00:00 UTC,2444814.083333,29.4519,-93.4333,0107,29.8000
1981-07-28 14:30:00 UTC,2444814.104167,29.4519,-93.4333,0107,29.8000
1981-07-28 15:00:00 UTC,2444814.125000,29.4519,-93.4333,0107,29.9000
1981-07-28 15:30:00 UTC,2444814.145833,29.4519,-93.4333,0107,29.9000
1981-07-28 16:00:00 UTC,2444814.166667,29.4519,-93.4333,0107,29.9000
1981-07-28 16:30:00 UTC,2444814.187500,29.4519,-93.4333,0107,29.9000
1981-07-28 17:00:00 UTC,2444814.208333,29.4519,-93.4333,0107,29.9000
1981-07-28 17:30:00 UTC,2444814.229167,29.4519,-93.4333,0107,29.9000
1981-07-28 18:00:00 UTC,2444814.250000,29.4519,-93.4333,0107,29.9000
1981-07-28 18:30:00 UTC,2444814.270833,29.4519,-93.4333,0107,29.9000
1981-07-28 19:00:00 UTC,2444814.291667,29.4519,-93.4333,0107,30.0000
1981-07-28 19:30:00 UTC,2444814.312500,29.4519,-93.4333,0107,30.1000
1981-07-28 20:00:00 UTC,2444814.333333,29.4519,-93.4333,0107,30.2000
1981-07-28 20:30:00 UTC,2444814.354167,29.4519,-93.4333,0107,30.4000
1981-07-28 21:00:00 UTC,2444814.375000,29.4519,-93.4333,0107,30.4000
1981-07-28 21:30:00 UTC,2444814.395833,29.4519,-93.4333,0107,30.3000
1981-07-28 22:00:00 UTC,2444814.416667,29.4519,-93.4333,0107,30.2000
1981-07-28 22:30:00 UTC,2444814.437500,29.4519,-93.4333,0107,30.2000
1981-07-28 23:00:00 UTC,2444814.458333,29.4519,-93.4333,0107,30.3000
1981-07-28 23:30:00 UTC,2444814.479167,29.4519,-93.4333,0107,30.5000
1981-07-29 00:00:00 UTC,2444814.500000,29.4519,-93.4333,0107,30.5000
1981-07-29 00:30:00 UTC,2444814.520833,29.4519,-93.4333,0107,30.5000
1981-07-29 01:00:00 UTC,2444814.541667,29.4519,-93.4333,0107,30.4000
1981-07-29 01:30:00 UTC,2444814.562500,29.4519,-93.4333,0107,30.4000
1981-07-29 02:00:00 UTC,2444814.583333,29.4519,-93.4333,0107,30.3000
1981-07-29 02:30:00 UTC,2444814.604167,29.4519,-93.4333,0107,30.2000
1981-07-29 03:00:00 UTC,2444814.625000,29.4519,-93.4333,0107,30.3000
1981-07-29 03:30:00 UTC,2444814.645833,29.4519,-93.4333,0107,30.3000
1981-07-29 04:00:00 UTC,2444814.666667,29.4519,-93.4333,0107,30.2000
1981-07-29 04:30:00 UTC,2444814.687500,29.4519,-93.4333,0107,30.2000
1981-07-29 05:00:00 UTC,2444814.708333,29.4519,-93.4333,0107,30.2000
1981-07-29 05:30:00 UTC,2444814.729167,29.4519,-93.4333,0107,30.2000
1981-07-29 06:00:00 UTC,2444814.750000,29.4519,-93.4333,0107,30.2000
1981-07-29 06:30:00 UTC,2444814.770833,29.4519,-93.4333,0107,30.2000
1981-07-29 07:00:00 UTC,2444814.791667,29.4519,-93.4333,0107,30.3000
1981-07-29 07:30:00 UTC,2444814.812500,29.4519,-93.4333,0107,30.4000
1981-07-29 08:00:00 UTC,2444814.833333,29.4519,-93.4333,0107,30.5000
1981-07-29 08:30:00 UTC,2444814.854167,29.4519,-93.4333,0107,30.5000
1981-07-29 09:00:00 UTC,2444814.875000,29.4519,-93.4333,0107,30.5000
1981-07-29 09:30:00 UTC,2444814.895833,29.4519,-93.4333,0107,30.4000
1981-07-29 10:00:00 UTC,2444814.916667,29.4519,-93.4333,0107,30.3000
1981-07-29 10:30:00 UTC,2444814.937500,29.4519,-93.4333,0107,30.3000
1981-07-29 11:00:00 UTC,2444814.958333,29.4519,-93.4333,0107,30.3000
1981-07-29 11:30:00 UTC,2444814.979167,29.4519,-93.4333,0107,30.1000
1981-07-29 12:00:00 UTC,2444815.000000,29.4519,-93.4333,0107,30.0000
1981-07-29 12:30:00 UTC,2444815.020833,29.4519,-93.4333,0107,30.0000
1981-07-29 13:00:00 UTC,2444815.041667,29.4519,-93.4333,0107,30.0000
1981-07-29 13:30:00 UTC,2444815.062500,29.4519,-93.4333,0107,30.0000
1981-07-29 14:00:00 UTC,2444815.083333,29.4519,-93.4333,0107,30.0000
1981-07-29 14:30:00 UTC,2444815.104167,29.4519,-93.4333,0107,30.0000
1981-07-29 15:00:00 UTC,2444815.125000,29.4519,-93.4333,0107,30.0000
1981-07-29 15:30:00 UTC,2444815.145833,29.4519,-93.4333,0107,30.0000
1981-07-29 16:00:00 UTC,2444815.166667,29.4519,-93.4333,0107,30.0000
1981-07-29 16:30:00 UTC,2444815.187500,29.4519,-93.4333,0107,30.0000
1981-07-29 17:00:00 UTC,2444815.208333,29.4519,-93.4333,0107,30.1000
1981-07-29 17:30:00 UTC,2444815.229167,29.4519,-93.4333,0107,30.1000
1981-07-29 18:00:00 UTC,2444815.250000,29.4519,-93.4333,0107,30.1000
1981-07-29 18:30:00 UTC,2444815.270833,29.4519,-93.4333,0107,30.2000
1981-07-29 19:00:00 UTC,2444815.291667,29.4519,-93.4333,0107,30.2000
1981-07-29 19:30:00 UTC,2444815.312500,29.4519,-93.4333,0107,30.3000
1981-07-29 20:00:00 UTC,2444815.333333,29.4519,-93.4333,0107,30.2000
1981-07-29 20:30:00 UTC,2444815.354167,29.4519,-93.4333,0107,30.2000
1981-07-29 21:00:00 UTC,2444815.375000,29.4519,-93.4333,0107,30.2000
1981-07-29 21:30:00 UTC,2444815.395833,29.4519,-93.4333,0107,30.2000
1981-07-29 22:00:00 UTC,2444815.416667,29.4519,-93.4333,0107,30.2000
1981-07-29 22:30:00 UTC,2444815.437500,29.4519,-93.4333,0107,30.2000
1981-07-29 23:00:00 UTC,2444815.458333,29.4519,-93.4333,0107,30.1000
1981-07-29 23:30:00 UTC,2444815.479167,29.4519,-93.4333,0107,30.1000
1981-07-30 00:00:00 UTC,2444815.500000,29.4519,-93.4333,0107,30.1000
1981-07-30 00:30:00 UTC,2444815.520833,29.4519,-93.4333,0107,30.1000
1981-07-30 01:00:00 UTC,2444815.541667,29.4519,-93.4333,0107,30.0000
1981-07-30 01:30:00 UTC,2444815.562500,29.4519,-93.4333,0107,30.0000
1981-07-30 02:00:00 UTC,2444815.583333,29.4519,-93.4333,0107,30.0000
1981-07-30 02:30:00 UTC,2444815.604167,29.4519,-93.4333,0107,30.0000
1981-07-30 03:00:00 UTC,2444815.625000,29.4519,-93.4333,0107,30.0000
1981-07-30 03:30:00 UTC,2444815.645833,29.4519,-93.4333,0107,30.0000
1981-07-30 04:00:00 UTC,2444815.666667,29.4519,-93.4333,0107,30.0000
1981-07-30 04:30:00 UTC,2444815.687500,29.4519,-93.4333,0107,30.0000
1981-07-30 05:00:00 UTC,2444815.708333,29.4519,-93.4333,0107,30.0000
1981-07-30 05:30:00 UTC,2444815.729167,29.4519,-93.4333,0107,30.0000
1981-07-30 06:00:00 UTC,2444815.750000,29.4519,-93.4333,0107,30.0000
1981-07-30 06:30:00 UTC,2444815.770833,29.4519,-93.4333,0107,30.1000
1981-07-30 07:00:00 UTC,2444815.791667,29.4519,-93.4333,0107,30.2000
1981-07-30 07:30:00 UTC,2444815.812500,29.4519,-93.4333,0107,30.2000
1981-07-30 08:00:00 UTC,2444815.833333,29.4519,-93.4333,0107,30.2000
1981-07-30 08:30:00 UTC,2444815.854167,29.4519,-93.4333,0107,30.2000
1981-07-30 09:00:00 UTC,2444815.875000,29.4519,-93.4333,0107,30.2000
1981-07-30 09:30:00 UTC,2444815.895833,29.4519,-93.4333,0107,30.2000
1981-07-30 10:00:00 UTC,2444815.916667,29.4519,-93.4333,0107,30.2000
1981-07-30 10:30:00 UTC,2444815.937500,29.4519,-93.4333,0107,30.1000
1981-07-30 11:00:00 UTC,2444815.958333,29.4519,-93.4333,0107,30.1000
1981-07-30 11:30:00 UTC,2444815.979167,29.4519,-93.4333,0107,30.1000
1981-07-30 12:00:00 UTC,2444816.000000,29.4519,-93.4333,0107,30.0000
1981-07-30 12:30:00 UTC,2444816.020833,29.4519,-93.4333,0107,30.0000
1981-07-30 13:00:00 UTC,2444816.041667,29.4519,-93.4333,0107,30.1000
1981-07-30 13:30:00 UTC,2444816.062500,29.4519,-93.4333,0107,30.1000
1981-07-30 14:00:00 UTC,2444816.083333,29.4519,-93.4333,0107,30.1000
1981-07-30 14:30:00 UTC,2444816.104167,29.4519,-93.4333,0107,30.1000
1981-07-30 15:00:00 UTC,2444816.125000,29.4519,-93.4333,0107,30.1000
1981-07-30 15:30:00 UTC,2444816.145833,29.4519,-93.4333,0107,30.1000
1981-07-30 16:00:00 UTC,2444816.166667,29.4519,-93.4333,0107,30.1000
1981-07-30 16:30:00 UTC,2444816.187500,29.4519,-93.4333,0107,30.0000
1981-07-30 17:00:00 UTC,2444816.208333,29.4519,-93.4333,0107,30.0000
1981-07-30 17:30:00 UTC,2444816.229167,29.4519,-93.4333,0107,30.1000
1981-07-30 18:00:00 UTC,2444816.250000,29.4519,-93.4333,0107,30.1000
1981-07-30 18:30:00 UTC,2444816.270833,29.4519,-93.4333,0107,30.1000
1981-07-30 19:00:00 UTC,2444816.291667,29.4519,-93.4333,0107,30.1000
1981-07-30 19:30:00 UTC,2444816.312500,29.4519,-93.4333,0107,30.1000
1981-07-30 20:00:00 UTC,2444816.333333,29.4519,-93.4333,0107,30.1000
1981-07-30 20:30:00 UTC,2444816.354167,29.4519,-93.4333,0107,30.1000
1981-07-30 21:00:00 UTC,2444816.375000,29.4519,-93.4333,0107,30.2000
1981-07-30 21:30:00 UTC,2444816.395833,29.4519,-93.4333,0107,30.2000
1981-07-30 22:00:00 UTC,2444816.416667,29.4519,-93.4333,0107,30.2000
1981-07-30 22:30:00 UTC,2444816.437500,29.4519,-93.4333,0107,30.2000